Regional Weather Roundup
Issued by NWS

Home | Current Version | Previous Version | Text Only | Print | Product List | Glossary On
Versions: 1 2 3 4 5 6 7 8 9 10 11 12 13 14 15 16 17 18 19 20 21 22 23 24 25 26 27
000
ASUS45 KSLC 290710
RWRUT

UTAH REGIONAL WEATHER ROUNDUP
NATIONAL WEATHER SERVICE SALT LAKE CITY UT
100 AM MDT MON AUG 29 2016

UTZ001>011-023>025-290800-

NORTHERN UTAH

CITY           SKY/WX    TMP DP  RH WIND       PRES   REMARKS
BRIGHAM CITY     N/A     62  42  47 CALM      30.18S
HILL AFB       CLEAR     68  32  26 SE14      30.20S
LOGAN          CLEAR     60  44  55 CALM      30.21R
OGDEN          CLEAR     69  33  26 S7        30.17S
PROVO AIRPORT  CLEAR     64  36  34 E5        30.19S
SALT LAKE CITY PTCLDY    70  35  27 S6        30.16R
VERNAL         CLEAR     61  38  42 NW5       30.25R
WENDOVER       CLEAR     66  34  30 W3        30.18R
HEBER CITY     CLEAR     50  36  57 E3        30.28R
WEST JORDAN    CLEAR     66  33  28 W3        30.20S

$$

UTZ012>022-026-027-290800-

SOUTHERN/CENTRAL UTAH

CITY           SKY/WX    TMP DP  RH WIND       PRES   REMARKS
BLANDING       CLEAR     58  42  55 NW6       30.33S
BRYCE CANYON   CLEAR     48  43  82 W9        30.41S
CEDAR CITY     CLEAR     62  40  44 E3        30.27R
MILFORD        CLEAR     60  35  39 S7        30.21S
MOAB/CYNLANDS  CLEAR     70  42  36 E10       30.17S
PRICE          CLEAR     67  37  33 NE9       30.28R
ST GEORGE      SUNNY     73  55  53 SE5       30.10S

$$

REGIONAL REPORTS     COLORADO/ARIZONA

CITY           SKY/WX    TMP DP  RH WIND       PRES   REMARKS
CRAIG, CO      CLOUDY    55  39  54 E5        30.32R
GRAND JUNCTION CLEAR     63  44  50 SE8       30.23S
RIFLE          CLOUDY    57  50  77 S7        30.30R
MONTROSE       CLOUDY    55  44  66 E6        30.31F
CORTEZ         CLOUDY    51  46  83 E8        30.27R
PAGE, AZ       CLEAR     73  43  33 SW6       30.16S
GRAND CANYON   CLEAR     50  46  86 CALM      30.34F
KINGMAN        CLEAR     70  53  54 S8        30.12R
FLAGSTAFF      CLEAR     46  43  89 CALM      30.35S

$$

REGIONAL REPORTS    NEVADA/IDAHO/WYOMING

CITY           SKY/WX    TMP DP  RH WIND       PRES   REMARKS
LAS VEGAS, NV  CLEAR     86  46  24 CALM      29.99R
ELY            CLEAR     54  24  31 S12       30.31R
ELKO           CLEAR     65  26  23 CALM      30.22R
POCATELLO, ID  CLOUDY    62  36  37 CALM      30.21R
BURLEY         CLEAR     58  42  55 CALM      30.16S
EVANSTON, WY   CLEAR     57  28  33 SE8       30.39R
ROCK SPRINGS   CLEAR     60  24  25 W9        30.32R

$$




USA.gov is the U.S. government's official web portal to all federal, state and local government web resources and services.